Weather Roundup
Issued by NWS Chicago, IL

Home | Current Version | Previous Version | Graphics & Text | Print | Product List | Glossary On
Versions: 1 2 3 4 5 6 7 8 9 10 11 12 13 14 15 16 17 18 19 20 21 22 23 24 25 26 27 28 29 30 31 32 33 34 35 36 37 38 39 40 41 42 43 44 45 46 47 48 49 50
000
NZUS59 KLOT 240603
HRRLOT

CHICAGO AREA WEATHER ROUNDUP
NATIONAL WEATHER SERVICE CHICAGO/ROMEOVILLE IL
100 AM CDT MON APR 24 2017

NOTE: "FAIR" INDICATES FEW OR NO CLOUDS BELOW 12,000 FEET WITH NO
SIGNIFICANT WEATHER AND/OR OBSTRUCTIONS TO VISIBILITY.

* THESE STATIONS ARE NOT UNDER NWS QUALITY CONTROL. THEY ALSO MAY NOT
  REPORT WEATHER SUCH AS PRECIPITATION OR FOG.

ILZ005-006-012>014-019>023-240700-
NORTHEAST ILLINOIS

CITY           SKY/WX    TMP DP  RH WIND       PRES   REMARKS
OHARE          MOCLDY    43  38  82 NE7       30.04F
6HR MIN TEMP:  43; 6HR MAX TEMP:  65;

MIDWAY         MOCLDY    47  39  74 N6        30.04F
6HR MIN TEMP:  47; 6HR MAX TEMP:  65;

AURORA         CLEAR     47  35  63 E3        30.03S
6HR MIN TEMP:  47; 6HR MAX TEMP:  71;

LANSING*       PTCLDY    45  43  93 CALM      30.04F
JOLIET*        PTCLDY    50  33  50 CALM      30.02F
WAUKEGAN       CLEAR     38  32  79 CALM      30.04F
6HR MIN TEMP:  38; 6HR MAX TEMP:  43;

DUPAGE AIRPORT CLEAR     41  38  89 NE6       30.03S
6HR MIN TEMP:  41; 6HR MAX TEMP:  66;

WHEELING       CLEAR     41  40  96 CALM      30.06S
6HR MIN TEMP:  41; 6HR MAX TEMP:  55;

KANKAKEE*      CLEAR     45  27  48 CALM      30.03F
MORRIS*        CLEAR     48  31  52 CALM      30.01F
LEWIS AIRPORT* PTCLDY    49  35  58 E7        30.03F
NORTHERLY ISL    N/A     43  40  89 N7          N/A
$$

WIZ051-052-058>065-066-070>072-240700-
SOUTHEAST WISCONSIN

CITY           SKY/WX    TMP DP  RH WIND       PRES   REMARKS
MILWAUKEE      PTCLDY    39  34  82 N5        30.05F
6HR MIN TEMP:  39; 6HR MAX TEMP:  41;

KENOSHA*       CLEAR     37  34  89 CALM      30.05F
RACINE*        CLEAR     38  34  85 N7        30.07F
WAUKESHA       CLEAR     34  32  93 NE5       30.06F WCI  30
WEST BEND      CLEAR     36  32  87 NE3       30.06F
$$

INZ001>003-010>013-019-020-240700-
NORTHWEST INDIANA

CITY           SKY/WX    TMP DP  RH WIND       PRES   REMARKS
GARY*          CLEAR     45  42  87 N3        30.05F
6HR MIN TEMP:  45; 6HR MAX TEMP:  62;

MICHIGAN CITY* NOT AVBL
RENSSELAER*    NOT AVBL
VALPARAISO     CLEAR     50  29  44 NE3       30.03F
$$

LMZ740>746-240700-
SOUTHERN LAKE MICHIGAN

STATION/POSITION TIME  SKY/WX   TEMP WIND        PRES    VSBY
                                AIR  DIR/SP/G
                 (UTC)          (F)  (DEG/KT/KT) (MB)    (MI)
HARRISON CRIB    0530            43  350/  9/ 10   N/A
BURNHAM HARBOR   0600            43  360/  8/ 12   N/A
CALUMET HARBOR   0530            44  350/  7/ 10 1017.0F
BURNS HARBOR     0540            49  340/  5/  7 1017.6S
MICHIGAN CITY    0540            51     CALM       N/A
$$

ABBREVIATIONS USED IN REMARKS
   TC - TEMPERATURE IN CELSIUS
  WCI - WIND CHILL INDEX
   HX - HEAT INDEX
  VSB - VISIBILITY
$$




USA.gov is the U.S. government's official web portal to all federal, state and local government web resources and services.